Zurück zum Katalog

DELTA 1 DEB

AktivSSO
NORAD 42629·DEBRIS·🇺🇸 United States

Gestartet Jun 12, 1975 von Vandenberg Space Force Base

Loading…

Nächste Überflüge (nächste 24 Stunden)

TLE

VeraltetSource: Space-Track

Epoche: Aug 20, 2026, 13:11 UTC

1 42629U 75052LN  26232.54931414  .00000087  00000-0  26865-3 0  9993
2 42629  99.8803 353.5697 0073455 242.8447 116.5173 13.31102526 75960

Verfolge DELTA 1 DEB in Echtzeit mit AllMySat

Download on the App Store